Location: Unspecified
(0.0000°N, 0.0000°E)
Time: 12:32:16
(UTC+00:00)

N. Korean satellite - Pass Details

Date: 25 April 2018
Orbit: 459 x 511 km, 97.2° (Epoch: 17 July)

Event Time Altitude Azimuth Distance (km) Brightness Sun altitude
Rises 18:48:19 0° 192° (SSW) 2,621 10.3 -12.2°
Reaches altitude 10° 18:50:47 10° 208° (SSW) 1,729 9.5 -12.8°
Maximum altitude 18:53:39 21° 259° (WSW) 1,174 9.4 -13.5°
Drops below altitude 10° 18:56:30 10° 309° (NW) 1,710 10.4 -14.2°
Sets 18:58:55 0° 326° (NW) 2,582 11.0 -14.8°
